Change the Weather History Date:

Wednesday, December 14, 2011

  Actual Average Record
Temperature  
Mean Temperature 35 °F -  
Max Temperature 37 °F 35 °F 51 °F (2006)
Min Temperature 33 °F 18 °F -2 °F (2013)
Degree Days  
Heating Degree Days 30    
Moisture  
Dew Point 27 °F    
Average Humidity 73    
Maximum Humidity 81    
Minimum Humidity 60    
Precipitation  
Precipitation 0.00 in - - ()
Sea Level Pressure  
Sea Level Pressure 30.38 in    
Wind  
Wind Speed 2 mph (NNE)    
Max Wind Speed 7 mph    
Max Gust Speed -    
Visibility 10 miles    
Events      
Averages and records for this station are not official NWS values.
T = Trace of Precipitation, MM = Missing Value Source: NWS Daily Summary

Daily Weather History Graph

Daily Weather History Graph

Search for Another Location

Airport or City:

Trip Planner

Search our weather history database for the weather conditions in past years. The results will help you decide how hot, cold, wet, or windy it might be!

Date:

Astronomy

Dec. 14, 2011 Rise Set
Actual Time 7:08 AM EST 4:03 PM EST
Civil Twilight 6:35 AM EST 4:36 PM EST
Nautical Twilight 5:58 AM EST 5:12 PM EST
Astronomical Twilight 5:23 AM EST 5:47 PM EST
Moon 8:26 PM EST (12/14) 9:45 AM EST (12/14)
Length of Visible Light 10h 01m
Length of Day
8h 55m
Waning Gibbous, 83% of the Moon is Illuminated
Dec 14
Waning Gibbous
Dec 17
Last Quarter
Dec 24
New
Jan 1
First Quarter
Jan 9
Full

Hourly Weather History & Observations

Time (EST) Temp. Windchill Dew Point Humidity Pressure Visibility Wind Dir Wind Speed Gust Speed Precip Events Conditions
12:15 AM 35.6 °F 32.8 °F 30.2 °F 81% 30.34 in 10.0 mi North 3.5 mph - N/A   Overcast
12:35 AM 35.6 °F - 30.2 °F 81% 30.33 in 10.0 mi Calm Calm - N/A   Overcast
12:55 AM 35.6 °F - 30.2 °F 81% 30.34 in 10.0 mi Calm Calm - N/A   Overcast
1:15 AM 35.6 °F 32.8 °F 30.2 °F 81% 30.34 in 10.0 mi North 3.5 mph - N/A   Overcast
1:35 AM 35.6 °F - 28.4 °F 75% 30.35 in 10.0 mi Calm Calm - N/A   Overcast
1:55 AM 35.6 °F 32.8 °F 28.4 °F 75% 30.35 in 10.0 mi North 3.5 mph - N/A   Overcast
2:15 AM 35.6 °F 32.8 °F 30.2 °F 81% 30.35 in 10.0 mi North 3.5 mph - N/A   Overcast
2:35 AM 35.6 °F 31.7 °F 30.2 °F 81% 30.35 in 10.0 mi North 4.6 mph - N/A   Overcast
2:55 AM 35.6 °F 31.7 °F 30.2 °F 81% 30.35 in 10.0 mi North 4.6 mph - N/A   Overcast
3:15 AM 35.6 °F 31.7 °F 30.2 °F 81% 30.35 in 10.0 mi North 4.6 mph - N/A   Overcast
3:35 AM 35.6 °F 32.8 °F 30.2 °F 81% 30.35 in 10.0 mi North 3.5 mph - N/A   Overcast
4:15 AM 35.6 °F 30.7 °F 28.4 °F 75% 30.35 in 10.0 mi NNE 5.8 mph - N/A   Overcast
4:35 AM 35.6 °F 31.7 °F 28.4 °F 75% 30.35 in 10.0 mi North 4.6 mph - N/A   Overcast
4:55 AM 35.6 °F 32.8 °F 28.4 °F 75% 30.35 in 10.0 mi North 3.5 mph - N/A   Overcast
5:15 AM 33.8 °F 30.8 °F 28.4 °F 81% 30.36 in 10.0 mi NNW 3.5 mph - N/A   Overcast
5:35 AM 33.8 °F - 28.4 °F 81% 30.37 in 10.0 mi Calm Calm - N/A   Overcast
5:55 AM 33.8 °F - 28.4 °F 81% 30.38 in 10.0 mi Calm Calm - N/A   Overcast
6:15 AM 33.8 °F - 28.4 °F 81% 30.38 in 10.0 mi Calm Calm - N/A   Overcast
6:35 AM 33.8 °F - 28.4 °F 81% 30.39 in 10.0 mi Calm Calm - N/A   Overcast
6:55 AM 33.8 °F - 28.4 °F 81% 30.39 in 10.0 mi Calm Calm - N/A   Overcast
7:15 AM 33.8 °F - 28.4 °F 81% 30.40 in 10.0 mi Calm Calm - N/A   Overcast
7:35 AM 33.8 °F - 28.4 °F 81% 30.41 in 10.0 mi Calm Calm - N/A   Overcast
7:55 AM 33.8 °F 30.8 °F 28.4 °F 81% 30.40 in 10.0 mi NE 3.5 mph - N/A   Overcast
8:15 AM 33.8 °F 29.6 °F 28.4 °F 81% 30.41 in 10.0 mi NNE 4.6 mph - N/A   Overcast
8:35 AM 35.6 °F 32.8 °F 28.4 °F 75% 30.41 in 10.0 mi NNE 3.5 mph - N/A   Overcast
8:55 AM 35.6 °F 32.8 °F 28.4 °F 75% 30.42 in 10.0 mi NNE 3.5 mph - N/A   Overcast
9:15 AM 35.6 °F 31.7 °F 28.4 °F 75% 30.43 in 10.0 mi NNE 4.6 mph - N/A   Overcast
9:35 AM 35.6 °F 31.7 °F 28.4 °F 75% 30.43 in 10.0 mi NNE 4.6 mph - N/A   Overcast
9:55 AM 35.6 °F 30.7 °F 28.4 °F 75% 30.43 in 10.0 mi NNE 5.8 mph - N/A   Overcast
10:15 AM 35.6 °F 31.7 °F 28.4 °F 75% 30.42 in 10.0 mi NNE 4.6 mph - N/A   Overcast
10:35 AM 35.6 °F 32.8 °F 26.6 °F 70% 30.42 in 10.0 mi NNE 3.5 mph - N/A   Overcast
10:55 AM 35.6 °F 32.8 °F 26.6 °F 70% 30.41 in 10.0 mi North 3.5 mph - N/A   Overcast
11:15 AM 35.6 °F 32.8 °F 26.6 °F 70% 30.41 in 10.0 mi North 3.5 mph - N/A   Overcast
11:35 AM 35.6 °F - 24.8 °F 65% 30.41 in 10.0 mi Calm Calm - N/A   Overcast
11:55 AM 37.4 °F - 24.8 °F 60% 30.40 in 10.0 mi Calm Calm - N/A   Overcast
12:15 PM 37.4 °F - 24.8 °F 60% 30.39 in 10.0 mi Calm Calm - N/A   Overcast
12:55 PM 37.4 °F - 24.8 °F 60% 30.38 in 10.0 mi Calm Calm - N/A   Overcast
1:15 PM 37.4 °F - 24.8 °F 60% 30.38 in 10.0 mi Calm Calm - N/A   Overcast
1:35 PM 37.4 °F - 24.8 °F 60% 30.38 in 10.0 mi Calm Calm - N/A   Overcast
1:55 PM 37.4 °F - 24.8 °F 60% 30.38 in 10.0 mi Calm Calm - N/A   Overcast
2:15 PM 37.4 °F - 24.8 °F 60% 30.38 in 10.0 mi Calm Calm - N/A   Overcast
2:35 PM 37.4 °F - 24.8 °F 60% 30.38 in 10.0 mi Calm Calm - N/A   Overcast
2:55 PM 37.4 °F - 24.8 °F 60% 30.38 in 10.0 mi Calm Calm - N/A   Overcast
3:35 PM 37.4 °F - 24.8 °F 60% 30.38 in 10.0 mi Calm Calm - N/A   Overcast
4:15 PM 37.4 °F - 24.8 °F 60% 30.38 in 10.0 mi Calm Calm - N/A   Overcast
4:35 PM 35.6 °F - 24.8 °F 65% 30.38 in 10.0 mi Calm Calm - N/A   Overcast
4:55 PM 35.6 °F - 24.8 °F 65% 30.38 in 10.0 mi Calm Calm - N/A   Overcast
5:15 PM 35.6 °F - 24.8 °F 65% 30.38 in 10.0 mi Calm Calm - N/A   Overcast
5:35 PM 35.6 °F 32.8 °F 24.8 °F 65% 30.38 in 10.0 mi SSE 3.5 mph - N/A   Overcast
5:55 PM 33.8 °F - 26.6 °F 75% 30.39 in 10.0 mi Calm Calm - N/A   Overcast
6:15 PM 33.8 °F - 26.6 °F 75% 30.40 in 10.0 mi Calm Calm - N/A   Overcast
6:35 PM 33.8 °F - 26.6 °F 75% 30.40 in 10.0 mi Calm Calm - N/A   Overcast
6:55 PM 33.8 °F - 26.6 °F 75% 30.39 in 10.0 mi Calm Calm - N/A   Overcast
7:15 PM 33.8 °F - 26.6 °F 75% 30.38 in 10.0 mi Calm Calm - N/A   Overcast
7:35 PM 33.8 °F 29.6 °F 26.6 °F 75% 30.37 in 10.0 mi SSE 4.6 mph - N/A   Overcast
8:15 PM 35.6 °F 29.9 °F 26.6 °F 70% 30.37 in 10.0 mi SSE 6.9 mph - N/A   Overcast
8:35 PM 33.8 °F 29.6 °F 26.6 °F 75% 30.36 in 10.0 mi SSE 4.6 mph - N/A   Overcast
8:55 PM 33.8 °F 30.8 °F 26.6 °F 75% 30.36 in 10.0 mi South 3.5 mph - N/A   Overcast
9:15 PM 33.8 °F 29.6 °F 24.8 °F 70% 30.35 in 10.0 mi South 4.6 mph - N/A   Overcast
9:35 PM 33.8 °F 29.6 °F 26.6 °F 75% 30.35 in 10.0 mi SSE 4.6 mph - N/A   Overcast
9:55 PM 33.8 °F 29.6 °F 26.6 °F 75% 30.34 in 10.0 mi SSE 4.6 mph - N/A   Overcast
10:15 PM 33.8 °F 29.6 °F 26.6 °F 75% 30.33 in 10.0 mi SSE 4.6 mph - N/A   Overcast
10:35 PM 33.8 °F - 26.6 °F 75% 30.34 in 10.0 mi Calm Calm - N/A   Overcast
10:55 PM 33.8 °F 30.8 °F 26.6 °F 75% 30.34 in 10.0 mi South 3.5 mph - N/A   Overcast
11:15 PM 33.8 °F 30.8 °F 24.8 °F 70% 30.33 in 10.0 mi South 3.5 mph - N/A   Overcast
11:35 PM 33.8 °F 29.6 °F 26.6 °F 75% 30.34 in 10.0 mi SSW 4.6 mph - N/A   Overcast
11:55 PM 33.8 °F 29.6 °F 26.6 °F 75% 30.32 in 10.0 mi SSE 4.6 mph - N/A   Overcast